Location: New Plymouth
(39.0670°S, 174.0830°E)
Time: 13:23:50
(UTC+12:00)

Daily predictions for brighter satellites

Satellite Brightness Start Highest point End
(mag) Time Altitude Azimuth Time Altitude Azimuth Time Altitude Azimuth
SL-16 R/B 3.6 17:40:59 10° NE 17:44:46 19° E 17:48:34 10° ESE
Cosmos 1354 Rocket 4.0 17:39:38 10° SSW 17:44:58 70° ESE 17:50:12 10° NNE
USA 234 3.5 17:38:42 10° SE 17:45:12 57° NE 17:51:38 10° NNW
Cosmos 1076 Rocket 4.2 17:43:09 10° NNE 17:47:00 33° E 17:50:54 10° SSE
Cosmos 1606 3.8 17:45:56 10° SSE 17:49:02 23° ESE 17:52:04 10° NE
CZ-4B R/B 1.5 17:47:10 10° NE 17:50:04 42° ESE 17:53:04 10° S
IRIDIUM 104 4.4 17:44:54 10° S 17:50:09 59° E 17:55:19 10° NNE
Atlas Centaur 2 3.5 17:46:12 10° WNW 17:50:29 30° N 17:55:42 10° NE
Cosmos 2151 4.3 17:48:39 10° NE 17:51:43 20° E 17:54:49 10° SE
Meteor PRIRODA 3.6 17:52:21 10° SSE 17:56:08 76° ENE 17:59:51 10° N
IRIDIUM 114 4.3 17:54:01 10° S 17:59:20 73° E 18:04:34 10° N
Cosmos 1437 Rocket 3.3 17:56:08 10° S 17:59:38 33° ESE 18:03:07 10° NE
ERS-2 3.9 17:59:44 10° E 18:01:37 14° ESE 18:03:32 10° SE
Cosmos 1356 3.6 17:59:41 10° NNW 18:03:06 75° W 18:06:35 10° S
Genesis I 4.5 17:59:41 10° NW 18:03:26 40° SW 18:07:09 10° SSE
ATLAS CENTAUR Rocket 3.9 18:00:53 10° NNW 18:03:39 15° N 18:05:58 10° NE
Cosmos 1242 Rocket 4.0 18:02:17 10° SSE 18:04:53 18° ESE 18:07:27 10° ENE
ATLAS 3B R/B 3.2 17:58:56 10° NW 18:06:26 69° SW 18:13:50 10° SSE
deb Chang Zheng 4 3.7 18:02:10 10° SSE 18:06:30 55° E 18:10:47 10° N
Cosmos 2333 Rocket 4.2 18:02:07 10° WNW 18:06:44 25° SW 18:11:23 10° S
Meteor 2-15 4.4 18:01:07 10° S 18:07:18 79° E 18:13:22 10° N
Cosmos 2058 3.4 18:03:18 10° NNW 18:07:25 65° W 18:11:37 10° S
IRIDIUM 103 4.4 18:03:07 10° S 18:08:27 89° E 18:13:42 10° N
Envisat 3.2 18:03:18 10° S 18:08:28 77° WSW 18:13:33 10° NNW
Cosmos 2237 Rocket 2.3 18:07:00 10° NNW 18:12:41 83° WSW 18:18:28 10° SSE
H-2A R/B 4.0 18:09:55 10° S 18:13:36 42° WSW 18:17:11 10° NW
SJ 16-02 2.4 18:10:31 10° S 18:14:14 25° ESE 18:17:54 10° ENE
SMAP 3.6 18:10:32 10° SSE 18:14:58 39° E 18:19:20 10° NNE
Cosmos 1943 Rocket 3.5 18:16:30 10° S 18:20:24 18° SE 18:21:53 17° ESE
NOAA 6 4.1 18:16:12 10° SSE 18:21:21 58° E 18:26:24 10° N
H-2A R/B 3.8 18:21:39 17° E 18:21:39 17° E 18:24:06 10° NE
Cosmos 1689 Rocket 2.8 18:20:18 10° NE 18:22:50 28° ESE 18:25:25 10° S
Cosmos 1553 Rocket 4.1 18:17:05 10° S 18:23:04 51° E 18:28:59 10° NNE
CSL-04 DEB 4.4 18:21:32 10° N 18:25:28 81° WNW 18:29:29 10° SSW
Hubble Space Telescope 3.2 18:34:02 10° N 18:35:26 11° NNE 18:36:49 10° NE
Okean O Rocket 2.4 18:34:15 21° SE 18:36:23 31° E 18:40:22 10° NNE
PSLV R/B 3.6 18:33:40 10° SSE 18:37:30 88° ENE 18:41:13 10° NNW
Lacrosse 5 2.1 18:34:32 10° SW 18:39:32 49° SE 18:42:26 23° ENE
Cosmos 2278 Rocket 2.8 18:34:18 10° SSW 18:39:57 62° WNW 18:45:32 10° N
Cosmos 2369 Rocket 4.0 18:40:04 10° SSE 18:41:48 14° SSE 18:41:48 14° SSE
Cosmos 1777 Rocket 4.2 18:38:34 10° SSW 18:43:53 74° WNW 18:49:06 10° N
MOS 1-B 4.3 18:40:01 10° SSE 18:45:53 69° ENE 18:51:41 10° N
Cosmos 1933 3.6 18:42:49 10° S 18:46:50 44° E 18:50:46 10° NNE
BREEZE-M DEB (TANK) 4.2 18:44:48 10° N 18:47:19 24° NE 18:47:27 24° NE
CZ-4B R/B 3.3 18:44:53 10° SSE 18:50:06 51° E 18:55:16 10° N
CZ-2C R/B 3.4 18:44:57 10° N 18:50:30 58° W 18:56:05 10° SSW
Cosmos 468 Rocket 4.3 18:50:13 10° N 18:55:17 47° ENE 18:57:19 32° SE
NOAA 11 4.4 18:51:53 10° S 18:57:23 71° WSW 19:02:50 10° NNW
Okean 3 Rocket 3.9 18:54:00 10° NNE 18:57:59 42° E 18:57:59 42° E
Meteor 2-3 Rocket 3.6 18:55:44 10° N 19:01:21 79° E 19:07:06 10° SSE
Cosmos 1655 Rocket 3.9 18:55:49 10° N 19:02:06 76° E 19:08:33 10° S
H-2A R/B 3.9 19:06:48 14° NNE 19:06:48 14° NNE 19:07:40 10° NNE
Cosmos 1766 Rocket 3.7 18:59:51 10° NNE 19:04:13 51° E 19:04:23 51° E
PAYLOAD B 4.3 19:00:21 10° SSE 19:06:00 80° WSW 19:11:33 10° NNW
Cosmos 1461 3.4 19:02:12 10° SW 19:06:34 65° WNW 19:11:04 10° NNE
ATLAS CENTAUR R/B 2.7 19:16:13 10° SSW 19:18:32 29° S 19:18:32 29° S
Cosmos 1939 Rocket 3.6 19:17:52 18° S 19:20:54 56° WSW 19:24:59 10° NNW
Lacrosse 5 rocket 3.4 19:22:08 10° N 19:24:00 21° N 19:24:00 21° N
Cosmos 883 Rocket 4.3 19:20:24 10° S 19:26:39 71° E 19:32:54 10° NNE
USA 234 4.1 19:24:15 23° SSE 19:28:03 44° SSW 19:34:13 10° WNW
CZ-2C R/B 3.1 19:25:08 21° S 19:28:19 68° WSW 19:33:04 10° NNW
SL-16 R/B 2.7 19:22:45 10° NW 19:28:19 57° WSW 19:32:00 22° S
ERS-2 3.6 19:31:21 10° NNW 19:34:46 37° W 19:38:16 10° SSW
Atlas Centaur 2 4.2 19:34:51 10° WNW 19:39:03 21° NNW 19:41:59 16° NNE
Cosmos 2266 Rocket 4.3 19:34:37 10° NNW 19:40:37 62° W 19:46:46 10° S
Cosmos 2297 3.8 19:39:26 10° SSW 19:45:15 75° WNW 19:46:43 51° N
SJ 16-02 3.4 19:48:57 10° SW 19:52:43 27° W 19:56:28 10° NNW
H-2A R/B 4.4 19:58:12 25° WNW 19:58:12 25° WNW 20:00:27 10° NW
Cosmos 1943 Rocket 2.8 19:59:00 10° SSW 20:03:28 53° SW 20:03:28 53° SW
Cosmos 1607 4.2 20:01:11 10° SW 20:07:10 65° WNW 20:07:10 65° WNW
Cosmos 1867 4.4 20:03:18 10° SW 20:07:40 47° W 20:07:40 47° W
Cosmos 2315 Rocket 4.4 20:06:00 10° SSW 20:12:15 61° W 20:18:29 10° N
Okean O Rocket 3.8 20:11:42 22° SW 20:12:32 24° WSW 20:16:06 10° WNW
Lacrosse 5 3.8 20:17:59 10° WSW 20:21:42 26° WNW 20:21:42 26° WNW
Cosmos 2369 Rocket 4.3 20:22:19 10° SSW 20:23:38 18° SSW 20:23:38 18° SSW
NOSS 3-1 (C) 4.4 20:34:21 10° NW 20:42:38 63° WSW 20:42:38 63° WSW
